GW2693 Weather Reports


Display with metric or nautical units.
time (UTC)temp
F
wind
direction
speed
MPH
gust
MPH
rain 1hr
in
rain 24hr
in
rain mn
in
humidity
%
barometer
mb
20260506173240 78 53 8.0 10.0 0.00 0.00 0.00 80 1007.7
20260506172737 82 74 4.0 6.0 0.00 0.00 0.00 84 1007.9
20260506172233 82 40 4.0 4.0 0.00 0.00 0.00 85 1008.1
20260506171731 82 96 3.0 4.0 0.00 0.00 0.00 85 1008.1
20260506171228 81 25 3.0 3.0 0.00 0.00 0.00 87 1008.1
20260506170726 81 105 2.0 2.0 0.00 0.00 0.00 87 1008.0
20260506170222 81 103 2.0 2.0 0.00 0.00 0.00 87 1008.0
20260506165720 81 60 2.0 3.0 0.00 0.00 0.00 87 1008.0
20260506165217 81 108 7.0 8.0 0.00 0.00 0.00 87 1008.2
20260506164714 80 84 1.0 2.0 0.00 0.00 0.00 90 1008.3
20260506164211 79 56 0.0 0.0 0.00 0.00 0.00 93 1008.3
20260506163708 78 50 0.0 0.0 0.00 0.00 0.00 93 1008.7
20260506163203 78 48 2.0 2.0 0.00 0.00 0.00 94 1008.6
20260506162659 77 53 2.0 3.0 0.00 0.00 0.00 94 1008.9
20260506162157 77 43 4.0 4.0 0.00 0.00 0.00 94 1008.9
20260506161654 77 47 2.0 2.0 0.00 0.00 0.00 94 1008.9
20260506161150 77 64 0.0 1.0 0.00 0.00 0.00 94 1008.6
20260506160648 77 71 0.0 0.0 0.00 0.00 0.00 94 1008.8
20260506160145 77 17 4.0 4.0 0.00 0.00 0.00 94 1008.5
20260506155643 77 47 2.0 2.0 0.00 0.00 0.00 94 1008.4
20260506155140 78 58 2.0 3.0 0.00 0.00 0.00 93 1008.1
20260506153242 78 114 0.0 0.0 0.00 0.00 0.00 94 1007.5
20260506152739 78 46 0.0 0.0 0.00 0.00 0.00 94 1007.5
20260506152237 78 129 1.0 1.0 0.00 0.00 0.00 94 1007.3
20260506151735 77 60 0.0 1.0 0.00 0.00 0.00 96 1007.2
20260506151232 77 89 0.0 1.0 0.00 0.00 0.00 97 1007.5
20260506150728 77 114 0.0 0.0 0.00 0.00 0.00 97 1007.2
20260506150226 76 90 0.0 0.0 0.00 0.00 0.00 98 1007.4
20260506145722 76 59 0.0 0.0 0.00 0.00 0.00 98 1007.6
20260506145219 76 102 0.0 0.0 0.00 0.00 0.00 98 1007.2
20260506144716 76 68 0.0 0.0 0.00 0.00 0.00 98 1007.4
20260506144213 75 85 0.0 0.0 0.00 0.00 0.00 98 1007.5
20260506143711 75 94 0.0 0.0 0.00 0.00 0.00 99 1007.5
20260506143208 75 71 0.0 0.0 0.00 0.00 0.00 99 1007.3
20260506142707 75 129 0.0 0.0 0.00 0.00 0.00 99 1007.1
20260506142204 75 82 0.0 0.0 0.00 0.00 0.00 99 1006.9
20260506141702 75 88 0.0 0.0 0.00 0.00 0.00 99 1007.0
20260506141200 75 118 1.0 2.0 0.00 0.00 0.00 99 1006.7
20260506140657 75 96 0.0 0.0 0.00 0.00 0.00 99 1006.8
20260506140154 75 111 1.0 1.0 0.00 0.00 0.00 99 1006.5
20260506135651 75 141 0.0 0.0 0.00 0.00 0.00 99 1006.2
20260506135147 75 106 0.0 0.0 0.00 0.00 0.00 99 1006.3
20260506134644 75 94 0.0 0.0 0.00 0.00 0.00 99 1006.3
20260506134140 75 98 0.0 0.0 0.00 0.00 0.00 99 1006.4
20260506133637 74 85 0.0 0.0 0.00 0.00 0.00 99 1006.2
20260506133134 74 86 0.0 0.0 0.00 0.00 0.00 99 1006.5
20260506132632 74 100 0.0 0.0 0.00 0.00 0.00 99 1006.2
20260506132128 74 77 0.0 0.0 0.00 0.00 0.00 99 1006.4
20260506131626 74 100 0.0 0.0 0.00 0.00 0.00 99 1006.2
20260506131122 74 54 0.0 0.0 0.00 0.00 0.00 99 1006.5
20260506130619 74 98 0.0 0.0 0.00 0.00 0.00 99 1006.4
20260506130116 74 71 0.0 0.0 0.00 0.00 0.00 99 1006.6
20260506125615 74 76 0.0 0.0 0.00 0.00 0.00 99 1006.6
20260506125112 74 70 0.0 0.0 0.00 0.00 0.00 99 1006.6
20260506124609 74 79 0.0 0.0 0.00 0.00 0.00 99 1006.4
20260506124107 74 78 0.0 0.0 0.00 0.00 0.00 99 1006.3
20260506123604 74 77 0.0 0.0 0.00 0.00 0.00 99 1006.3
20260506123103 74 77 0.0 0.0 0.00 0.00 0.00 99 1006.5
20260506122559 74 73 0.0 0.0 0.00 0.00 0.00 99 1006.3
20260506122057 73 96 0.0 0.0 0.00 0.00 0.00 99 1006.2
20260506121555 73 136 0.0 0.0 0.00 0.00 0.00 99 1006.2
20260506121051 73 111 0.0 0.0 0.00 0.00 0.00 99 1006.2
20260506120549 73 107 0.0 0.0 0.00 0.00 0.00 99 1006.2
20260506120046 73 105 0.0 0.0 0.00 0.00 0.00 99 1006.3
20260506115544 73 98 0.0 0.0 0.00 0.00 0.00 99 1006.3
20260506115042 73 101 0.0 0.0 0.00 0.00 0.00 99 1006.2
20260506114539 73 98 0.0 0.0 0.00 0.00 0.00 99 1006.2
20260506114037 73 99 0.0 0.0 0.00 0.00 0.00 99 1006.1
20260506113535 73 149 0.0 0.0 0.00 0.00 0.00 99 1006.1
20260506113032 73 125 0.0 0.0 0.00 0.00 0.00 99 1006.0
20260506112528 73 142 0.0 0.0 0.00 0.00 0.00 99 1006.0
20260506112026 73 113 0.0 0.0 0.00 0.00 0.00 99 1006.1
20260506111524 73 164 0.0 0.0 0.00 0.00 0.00 99 1006.1
20260506111021 73 115 0.0 0.0 0.00 0.00 0.00 99 1006.0
20260506110518 73 121 0.0 0.0 0.00 0.00 0.00 99 1005.9
20260506110015 73 118 0.0 0.0 0.00 0.00 0.00 99 1005.8
20260506105511 73 110 0.0 0.0 0.00 0.00 0.00 99 1005.8
20260506105009 73 139 0.0 0.0 0.00 0.00 0.00 99 1005.8
20260506104507 73 109 0.0 0.0 0.00 0.00 0.00 99 1005.8
20260506104005 73 123 0.0 0.0 0.00 0.00 0.00 99 1005.8
20260506103501 73 120 0.0 0.0 0.00 0.00 0.00 99 1005.8
20260506102958 73 182 0.0 0.0 0.00 0.00 0.00 99 1005.7
20260506102456 73 108 0.0 0.0 0.00 0.00 0.00 99 1006.0
20260506101953 73 251 0.0 0.0 0.00 0.00 0.00 99 1005.8
20260506101450 73 188 0.0 0.0 0.00 0.00 0.00 99 1005.6
20260506100947 73 201 0.0 0.0 0.00 0.00 0.00 99 1005.7
20260506100446 73 172 0.0 0.0 0.00 0.00 0.00 99 1005.0
20260506095943 73 220 0.0 0.0 0.00 0.00 0.00 99 1005.1
20260506095442 73 197 1.0 2.0 0.00 0.00 0.00 99 1004.9
20260506094937 73 198 2.0 3.0 0.00 0.00 0.00 99 1005.1
20260506094436 73 139 2.0 2.0 0.00 0.00 0.00 99 1004.9
20260506093933 74 218 3.0 4.0 0.00 0.00 0.00 99 1004.9
20260506093431 74 144 0.0 0.0 0.00 0.00 0.00 99 1004.9
20260506092928 74 187 2.0 3.0 0.00 0.00 0.00 99 1004.9
20260506092426 74 170 0.0 0.0 0.00 0.00 0.00 99 1005.0
20260506091922 74 110 3.0 4.0 0.00 0.00 0.00 99 1005.2
20260506091421 74 226 3.0 3.0 0.00 0.00 0.00 99 1005.0
20260506090918 74 195 2.0 3.0 0.00 0.00 0.00 99 1005.6
20260506090415 74 185 1.0 2.0 0.00 0.00 0.00 99 1005.0
20260506085912 74 150 0.0 1.0 0.00 0.00 0.00 99 1005.3
20260506085409 74 211 2.0 4.0 0.00 0.00 0.00 99 1005.4
20260506084905 74 210 0.0 2.0 0.00 0.00 0.00 99 1005.3
20260506084402 74 187 1.0 2.0 0.00 0.00 0.00 99 1005.2
20260506083858 74 220 2.0 2.0 0.00 0.00 0.00 99 1005.4
20260506083356 74 227 2.0 3.0 0.00 0.00 0.00 99 1004.9
20260506082853 74 208 2.0 2.0 0.00 0.00 0.00 99 1004.9
20260506082349 74 203 2.0 3.0 0.00 0.00 0.00 99 1005.2
20260506081845 74 203 4.0 4.0 0.00 0.00 0.00 99 1005.1
20260506081343 74 160 2.0 3.0 0.00 0.00 0.00 99 1005.0
20260506080835 74 193 2.0 3.0 0.00 0.00 0.00 99 1005.1
20260506080331 74 189 3.0 3.0 0.00 0.00 0.00 99 1005.2
20260506073316 74 202 1.0 2.0 0.00 0.00 0.00 99 1005.6
20260506072812 74 221 1.0 2.0 0.00 0.00 0.00 99 1005.4
20260506072310 74 208 2.0 3.0 0.00 0.00 0.00 99 1005.4
20260506071808 74 193 1.0 2.0 0.00 0.00 0.00 99 1005.6
20260506071306 74 175 3.0 4.0 0.00 0.00 0.00 99 1005.8
20260506070802 74 199 6.0 7.0 0.00 0.00 0.00 99 1005.8
20260506070259 74 208 2.0 3.0 0.00 0.00 0.00 99 1005.8
20260506062236 75 208 2.0 2.0 0.00 0.00 0.00 99 1005.9
20260506061732 75 155 2.0 2.0 0.00 0.00 0.00 99 1006.0
20260506061230 75 207 4.0 6.0 0.00 0.00 0.00 99 1006.0
20260506060728 75 167 0.0 1.0 0.00 0.00 0.00 99 1006.0
20260506060225 75 178 2.0 3.0 0.00 0.00 0.00 99 1006.0
20260506051157 74 150 2.0 2.0 0.00 0.00 0.00 98 1005.9
20260506050655 74 176 2.0 2.0 0.00 0.00 0.00 98 1006.0
20260506050152 75 150 2.0 2.0 0.00 0.00 0.00 98 1005.8
20260506044643 75 185 2.0 3.0 0.00 0.00 0.00 97 1005.9
20260506044140 75 223 3.0 6.0 0.00 0.00 0.00 97 1006.0
20260506043637 75 191 2.0 2.0 0.00 0.00 0.00 97 1005.7
20260506043135 75 183 2.0 3.0 0.00 0.00 0.00 97 1005.9
20260506042634 75 157 2.0 3.0 0.00 0.00 0.00 97 1005.8
20260506042131 75 179 2.0 3.0 0.00 0.00 0.00 97 1006.0
20260506041630 75 199 2.0 2.0 0.00 0.00 0.00 96 1005.9
20260506041126 75 152 3.0 4.0 0.00 0.00 0.00 96 1005.8
20260506040624 75 153 2.0 3.0 0.00 0.00 0.00 96 1005.8
20260506040120 75 177 5.0 7.0 0.00 0.00 0.00 96 1005.6
20260506035617 75 157 2.0 2.0 0.00 0.00 0.00 96 1005.4
20260506035114 75 203 4.0 7.0 0.00 0.00 0.00 96 1005.3
20260506034611 75 198 2.0 2.0 0.00 0.00 0.00 96 1005.4
20260506034108 75 182 4.0 6.0 0.00 0.00 0.00 96 1005.0
20260506033605 76 180 3.0 4.0 0.00 0.00 0.00 95 1005.1
20260506033102 76 167 2.0 2.0 0.00 0.00 0.00 95 1005.1
20260506032600 76 161 6.0 8.0 0.00 0.00 0.00 95 1005.0
20260506032056 76 206 4.0 6.0 0.00 0.00 0.00 95 1004.8
20260506031554 76 213 5.0 8.0 0.00 0.00 0.00 94 1005.0
20260506031050 76 201 4.0 4.0 0.00 0.00 0.00 94 1004.8
20260506030549 76 199 3.0 3.0 0.00 0.00 0.00 94 1004.7
20260506030046 76 186 3.0 6.0 0.00 0.00 0.00 93 1004.6
20260506025542 76 207 6.0 8.0 0.00 0.00 0.00 93 1004.5
20260506025038 77 202 4.0 4.0 0.00 0.00 0.00 93 1004.7
20260506024535 77 213 3.0 4.0 0.00 0.00 0.00 92 1004.5
20260506024031 77 160 4.0 6.0 0.00 0.00 0.00 92 1004.6
20260506023522 77 218 4.0 7.0 0.00 0.00 0.00 92 1004.5
20260506023020 77 164 5.0 7.0 0.00 0.00 0.00 91 1004.6
20260506022517 77 164 3.0 4.0 0.00 0.00 0.00 91 1004.6
20260506022015 78 112 3.0 4.0 0.00 0.00 0.00 91 1004.4
20260506021512 78 234 2.0 3.0 0.00 0.00 0.00 91 1004.5
20260506021009 78 219 5.0 8.0 0.00 0.00 0.00 90 1004.4
20260506020507 78 230 2.0 2.0 0.00 0.00 0.00 90 1004.6
20260506020004 78 213 2.0 3.0 0.00 0.00 0.00 90 1004.5
20260506015501 78 147 1.0 2.0 0.00 0.00 0.00 90 1004.2
20260506014958 78 239 2.0 3.0 0.00 0.00 0.00 90 1004.4
20260506014455 78 154 2.0 2.0 0.00 0.00 0.00 90 1004.2
20260506013951 78 192 2.0 3.0 0.00 0.00 0.00 89 1004.3
20260506013450 78 169 2.0 4.0 0.00 0.00 0.00 89 1003.8
20260506012945 79 186 2.0 2.0 0.00 0.00 0.00 89 1004.0
20260506012442 79 172 1.0 1.0 0.00 0.00 0.00 88 1004.0
20260506011939 79 185 2.0 2.0 0.00 0.00 0.00 88 1003.9
20260506011436 79 220 2.0 3.0 0.00 0.00 0.00 88 1003.8
20260506010933 79 198 3.0 3.0 0.00 0.00 0.00 87 1003.5
20260506010432 80 184 2.0 3.0 0.00 0.00 0.00 87 1003.7
20260506005928 80 166 1.0 2.0 0.00 0.00 0.00 86 1003.6
20260506005426 80 183 1.0 1.0 0.00 0.00 0.00 86 1003.4
20260506004921 80 179 5.0 7.0 0.00 0.00 0.00 85 1003.6
20260506004419 80 230 2.0 3.0 0.00 0.00 0.00 85 1003.3
20260506003915 81 207 2.0 3.0 0.00 0.00 0.00 85 1003.3
20260506003411 81 169 1.0 2.0 0.00 0.00 0.00 84 1003.2
20260506002908 81 186 1.0 2.0 0.00 0.00 0.00 84 1003.0
20260506002404 82 152 0.0 0.0 0.00 0.00 0.00 83 1003.3
20260506001859 82 204 2.0 2.0 0.00 0.00 0.00 83 1003.1
20260506001356 82 153 2.0 3.0 0.00 0.00 0.00 82 1003.0
20260506000854 83 143 6.0 8.0 0.00 0.00 0.00 81 1002.8
20260506000354 83 181 4.0 6.0 0.00 0.00 0.00 81 1002.8
20260505235848 83 197 2.0 2.0 0.00 0.00 0.00 80 1003.0
20260505235346 83 165 2.0 3.0 0.00 0.00 0.00 80 1003.0
20260505234842 83 168 3.0 4.0 0.00 0.00 0.00 80 1002.9
20260505234340 83 190 2.0 2.0 0.00 0.00 0.00 80 1003.0
20260505233837 83 206 2.0 3.0 0.00 0.00 0.00 79 1003.0
20260505233335 84 200 1.0 1.0 0.00 0.00 0.00 79 1003.0
20260505232832 84 174 4.0 6.0 0.00 0.00 0.00 78 1002.9
20260505232330 85 149 4.0 7.0 0.00 0.00 0.00 77 1002.8
20260505231826 85 213 5.0 7.0 0.00 0.00 0.00 76 1002.8
20260505231324 85 183 3.0 4.0 0.00 0.00 0.00 76 1003.0
20260505230822 84 216 4.0 4.0 0.00 0.00 0.00 76 1002.7
20260505230319 84 214 5.0 6.0 0.00 0.00 0.00 76 1002.8
20260505225815 84 174 4.0 4.0 0.00 0.00 0.00 75 1002.7
20260505225313 84 190 2.0 3.0 0.00 0.00 0.00 77 1002.7
20260505224808 85 197 4.0 4.0 0.00 0.00 0.00 76 1002.8
20260505224306 85 152 2.0 3.0 0.00 0.00 0.00 76 1003.1
20260505223803 85 193 5.0 6.0 0.00 0.00 0.00 76 1002.9
20260505223300 85 225 4.0 6.0 0.00 0.00 0.00 76 1002.8
20260505222755 84 199 4.0 4.0 0.00 0.00 0.00 76 1002.8
20260505222251 84 190 4.0 6.0 0.00 0.00 0.00 76 1002.7
20260505221749 84 215 6.0 9.0 0.00 0.00 0.00 76 1002.9
20260505221245 84 179 4.0 6.0 0.00 0.00 0.00 76 1003.0
20260505220742 85 233 5.0 6.0 0.00 0.00 0.00 76 1003.0
20260505220239 85 246 4.0 4.0 0.00 0.00 0.00 75 1003.2
20260505215738 85 217 6.0 8.0 0.00 0.00 0.00 75 1003.2
20260505215235 85 233 7.0 9.0 0.00 0.00 0.00 74 1003.2
20260505214733 84 236 4.0 6.0 0.00 0.00 0.00 76 1003.2
20260505214230 84 249 5.0 6.0 0.00 0.00 0.00 75 1003.0
20260505213727 85 202 9.0 10.0 0.00 0.00 0.00 74 1003.4
20260505213224 85 208 4.0 6.0 0.00 0.00 0.00 75 1003.3
20260505212720 84 182 5.0 7.0 0.00 0.00 0.00 75 1003.4
20260505212218 84 221 4.0 4.0 0.00 0.00 0.00 76 1003.5
20260505211715 84 194 6.0 8.0 0.00 0.00 0.00 75 1003.6
20260505211212 84 198 6.0 7.0 0.00 0.00 0.00 76 1003.5
20260505210708 84 255 4.0 4.0 0.00 0.00 0.00 76 1003.5
20260505210205 84 197 8.0 9.0 0.00 0.00 0.00 76 1003.9
20260505205703 84 248 9.0 11.0 0.00 0.00 0.00 75 1004.0
20260505205201 84 238 6.0 6.0 0.00 0.00 0.00 77 1004.3
20260505204657 84 109 5.0 8.0 0.00 0.00 0.00 77 1004.1
20260505204155 84 249 3.0 4.0 0.00 0.00 0.00 78 1004.2
20260505203652 83 204 2.0 2.0 0.00 0.00 0.00 79 1004.2
20260505203148 83 147 6.0 9.0 0.00 0.00 0.00 79 1004.4
20260505202644 83 228 8.0 10.0 0.00 0.00 0.00 78 1004.5
20260505202140 84 345 2.0 2.0 0.00 0.00 0.00 80 1004.3
20260505201637 83 152 3.0 6.0 0.00 0.00 0.00 78 1004.6
20260505201135 84 224 8.0 10.0 0.00 0.00 0.00 77 1004.4
20260505200633 83 262 6.0 8.0 0.00 0.00 0.00 79 1004.4
20260505200130 82 203 5.0 7.0 0.00 0.00 0.00 80 1004.8
20260505195626 82 232 6.0 10.0 0.00 0.00 0.00 80 1004.7
20260505195123 82 211 6.0 7.0 0.00 0.00 0.00 80 1004.8
20260505194620 82 220 6.0 8.0 0.00 0.00 0.00 82 1004.9
20260505194116 82 195 5.0 7.0 0.00 0.00 0.00 81 1004.9
20260505193613 82 197 4.0 4.0 0.00 0.00 0.00 81 1005.0
20260505193110 81 198 3.0 4.0 0.00 0.00 0.00 82 1005.3
20260505192609 81 190 6.0 9.0 0.00 0.00 0.00 82 1005.3
20260505192106 81 227 4.0 4.0 0.00 0.00 0.00 82 1005.3
20260505191604 81 235 4.0 7.0 0.00 0.00 0.00 83 1005.2
20260505191102 81 195 6.0 8.0 0.00 0.00 0.00 82 1005.7
20260505190556 80 200 4.0 6.0 0.00 0.00 0.00 84 1005.6
20260505190052 80 220 5.0 6.0 0.00 0.00 0.00 84 1005.7
20260505185549 80 176 4.0 6.0 0.00 0.00 0.00 85 1005.7
20260505185045 80 159 4.0 6.0 0.00 0.00 0.00 85 1005.6
20260505184542 80 201 6.0 8.0 0.00 0.00 0.00 83 1005.9
20260505184039 80 185 4.0 4.0 0.00 0.00 0.00 84 1005.9
20260505183536 80 232 7.0 8.0 0.00 0.00 0.00 84 1006.2
20260505183033 80 253 4.0 4.0 0.00 0.00 0.00 85 1006.2
20260505182529 79 265 7.0 9.0 0.00 0.00 0.00 84 1005.9
20260505182026 79 204 5.0 6.0 0.00 0.00 0.00 84 1006.0
20260505181523 79 211 7.0 10.0 0.00 0.00 0.00 85 1006.1
20260505181020 78 209 4.0 6.0 0.00 0.00 0.00 86 1006.1
20260505180510 78 182 4.0 6.0 0.00 0.00 0.00 86 1006.0
20260505180009 78 208 6.0 11.0 0.00 0.00 0.00 87 1006.0
20260505175503 79 218 8.0 9.0 0.00 0.00 0.00 86 1006.2
20260505175000 78 206 4.0 4.0 0.00 0.00 0.00 87 1006.0
20260505174457 77 268 3.0 4.0 0.00 0.00 0.00 88 1006.2
20260505173953 77 227 4.0 6.0 0.00 0.00 0.00 88 1006.3